Weather History for Port Aransas, TX

Change the Weather History Date:

Monday, November 4, 2013

  Actual Average (KCRP) Record (KCRP)
Temperature  
Mean Temperature 70 °F 70 °F  
Max Temperature 75 °F 80 °F 98 °F (1988)
Min Temperature 66 °F 60 °F 38 °F (1950)
Degree Days  
Heating Degree Days 0 1  
Month to date heating degree days 4  
Since 1 July heating degree days 14  
Cooling Degree Days 6 6  
Month to date cooling degree days 25  
Year to date cooling degree days 3376  
Growing Degree Days 20 (Base 50)    
Moisture  
Dew Point 64 °F    
Average Humidity 74    
Maximum Humidity 87    
Minimum Humidity 53    
Precipitation  
Precipitation 0.00 in 0.09 in 0.88 in (2002)
Month to date precipitation 0.36  
Year to date precipitation 28.32  
Snow  
Snow 0.00 in - - ()
Month to date snowfall  
Since 1 July snowfall  
Since 1 September snowfall  
Snow Depth -    
Sea Level Pressure  
Sea Level Pressure 29.98 in    
Wind  
Wind Speed 6 mph (ESE)    
Max Wind Speed 14 mph    
Max Gust Speed 17 mph    
Visibility 10 miles    
Events      
T = Trace of Precipitation, MM = Missing Value Source: NWS Daily Summary

Daily Weather History Graph

Daily Weather History Graph

Search for Another Location

Airport:

Trip Planner

Search our weather history database for the weather conditions in past years. The results will help you decide how hot, cold, wet, or windy it might be!

Date:

Astronomy

Nov. 04, 2013 Rise Set
Actual Time 6:41 AM CST 5:41 PM CST
Civil Twilight 6:17 AM CST 6:06 PM CST
Nautical Twilight 5:49 AM CST 6:33 PM CST
Astronomical Twilight 5:21 AM CST 7:01 PM CST
Moon 7:48 AM CST (11/4) 6:53 PM CST (11/4)
Length of Visible Light 11h 48m
Length of Day
11h 00m
New Moon, 2% of the Moon is Illuminated
Nov 4
New Moon
Nov 9
First Quarter
Nov 17
Full
Nov 25
Last Quarter
Dec 2
New

Hourly Weather History & Observations

Time (CST) Temp. Dew Point Humidity Pressure Visibility Wind Dir Wind Speed Gust Speed Precip Events Conditions
12:15 AM 70.9 °F 53.2 °F 54% 30.04 in 10.0 mi SSE 5.8 mph - N/A   Clear
12:35 AM 69.4 °F 54.1 °F 58% 30.03 in 10.0 mi South 6.9 mph - N/A   Clear
12:55 AM 71.2 °F 53.2 °F 53% 30.03 in 10.0 mi SSE 8.1 mph - N/A   Clear
1:15 AM 70.9 °F 54.7 °F 56% 30.03 in 10.0 mi SSE 6.9 mph - N/A   Clear
1:35 AM 71.6 °F 54.3 °F 54% 30.02 in 10.0 mi South 5.8 mph - N/A   Clear
1:55 AM 71.6 °F 55.2 °F 56% 30.01 in 10.0 mi South 5.8 mph - N/A   Clear
2:15 AM 71.8 °F 55.9 °F 57% 30.00 in 10.0 mi SSE 8.1 mph - N/A   Scattered Clouds
2:35 AM 71.8 °F 56.7 °F 59% 30.01 in 10.0 mi SSE 5.8 mph - N/A   Clear
2:55 AM 71.2 °F 57.7 °F 62% 30.00 in 10.0 mi SSE 5.8 mph - N/A   Scattered Clouds
3:15 AM 71.6 °F 58.3 °F 63% 29.99 in 10.0 mi SSE 6.9 mph - N/A   Mostly Cloudy
3:35 AM 70.5 °F 58.1 °F 65% 29.98 in 10.0 mi SSE 4.6 mph - N/A   Scattered Clouds
3:55 AM 70.3 °F 58.1 °F 65% 29.97 in 10.0 mi SSE 3.5 mph - N/A   Clear
4:15 AM 70.0 °F 59.0 °F 68% 29.97 in 10.0 mi Calm Calm - N/A   Clear
4:35 AM 69.8 °F 59.4 °F 69% 29.98 in 10.0 mi Calm Calm - N/A   Scattered Clouds
4:55 AM 69.6 °F 59.4 °F 70% 29.98 in 10.0 mi Calm Calm - N/A   Scattered Clouds
5:15 AM 67.8 °F 59.2 °F 74% 29.98 in 10.0 mi Calm Calm - N/A   Scattered Clouds
5:35 AM 67.3 °F 59.9 °F 77% 29.98 in 10.0 mi Calm Calm - N/A   Clear
5:55 AM 68.5 °F 61.0 °F 77% 29.99 in 10.0 mi Calm Calm - N/A   Clear
6:15 AM 66.2 °F 61.0 °F 83% 29.99 in 10.0 mi Calm Calm - N/A   Clear
6:35 AM 66.7 °F 62.2 °F 85% 29.99 in 10.0 mi NNW 3.5 mph - N/A   Mostly Cloudy
6:55 AM 67.1 °F 63.1 °F 87% 30.00 in 10.0 mi North 3.5 mph - N/A   Overcast
7:15 AM 67.5 °F 63.0 °F 85% 30.00 in 10.0 mi NNE 4.6 mph - N/A   Overcast
7:35 AM 68.2 °F 63.3 °F 84% 30.01 in 10.0 mi Calm Calm - N/A   Overcast
7:55 AM 68.9 °F 63.0 °F 81% 30.01 in 10.0 mi NNE 3.5 mph - N/A   Overcast
8:15 AM 69.6 °F 62.8 °F 79% 30.02 in 10.0 mi NNE 6.9 mph - N/A   Overcast
8:35 AM 69.8 °F 62.6 °F 78% 30.02 in 10.0 mi NNE 3.5 mph - N/A   Mostly Cloudy
8:55 AM 71.8 °F 63.5 °F 75% 30.03 in 10.0 mi NNE 4.6 mph - N/A   Overcast
9:15 AM 73.6 °F 62.6 °F 68% 30.04 in 10.0 mi Calm Calm - N/A   Mostly Cloudy
9:35 AM 74.3 °F 63.1 °F 68% 30.04 in 10.0 mi Calm Calm - N/A   Mostly Cloudy
9:55 AM 74.3 °F 64.6 °F 72% 30.04 in 10.0 mi ENE 4.6 mph - N/A   Overcast
10:15 AM 74.7 °F 65.3 °F 73% 30.04 in 10.0 mi NE 4.6 mph - N/A   Scattered Clouds
10:35 AM 75.2 °F 66.2 °F 73% 30.04 in 10.0 mi ENE 8.1 mph - N/A   Clear
10:55 AM 74.7 °F 65.8 °F 74% 30.04 in 10.0 mi ENE 8.1 mph - N/A   Mostly Cloudy
11:15 AM 74.5 °F 65.7 °F 74% 30.03 in 10.0 mi ENE 9.2 mph - N/A   Overcast
11:35 AM 75.0 °F 66.2 °F 74% 30.02 in 10.0 mi ENE 8.1 mph - N/A   Overcast
11:55 AM 74.5 °F 66.0 °F 75% 30.00 in 10.0 mi ENE 8.1 mph - N/A   Scattered Clouds
12:15 PM 75.2 °F 65.8 °F 73% 29.99 in 10.0 mi East 9.2 mph - N/A   Clear
12:35 PM 75.0 °F 66.2 °F 74% 29.98 in 10.0 mi East 6.9 mph - N/A   Clear
12:55 PM 75.9 °F 66.7 °F 73% 29.98 in 10.0 mi East 11.5 mph - N/A   Clear
1:15 PM 75.2 °F 66.6 °F 74% 29.96 in 10.0 mi East 10.4 mph - N/A   Clear
1:35 PM 74.7 °F 66.0 °F 74% 29.96 in 10.0 mi East 8.1 mph - N/A   Clear
1:55 PM 75.4 °F 66.9 °F 75% 29.95 in 10.0 mi East 9.2 mph - N/A   Clear
2:15 PM 74.7 °F 67.1 °F 77% 29.95 in 10.0 mi East 9.2 mph - N/A   Clear
2:35 PM 75.7 °F 67.1 °F 74% 29.94 in 10.0 mi East 11.5 mph - N/A   Scattered Clouds
2:55 PM 75.6 °F 65.8 °F 72% 29.93 in 10.0 mi East 12.7 mph - N/A   Scattered Clouds
3:15 PM 75.2 °F 67.3 °F 76% 29.93 in 10.0 mi East 10.4 mph - N/A   Clear
3:35 PM 74.8 °F 66.9 °F 76% 29.93 in 10.0 mi East 10.4 mph - N/A   Clear
3:55 PM 74.7 °F 68.5 °F 81% 29.93 in 10.0 mi East 11.5 mph - N/A   Scattered Clouds
4:15 PM 74.3 °F 68.0 °F 81% 29.93 in 10.0 mi East 13.8 mph 17.3 mph N/A   Clear
4:35 PM 74.1 °F 68.0 °F 81% 29.93 in 10.0 mi East 12.7 mph 17.3 mph N/A   Clear
4:55 PM 73.8 °F 68.0 °F 82% 29.93 in 10.0 mi East 12.7 mph 16.1 mph N/A   Clear
5:15 PM 74.1 °F 68.7 °F 83% 29.94 in 10.0 mi East 11.5 mph - N/A   Clear
5:35 PM 74.3 °F 68.9 °F 83% 29.94 in 10.0 mi East 11.5 mph - N/A   Clear
5:55 PM 74.1 °F 69.1 °F 84% 29.95 in 10.0 mi East 10.4 mph - N/A   Clear
6:15 PM 74.1 °F 66.6 °F 77% 29.95 in 10.0 mi SE 5.8 mph - N/A   Clear
6:35 PM 75.2 °F 65.5 °F 72% 29.96 in 10.0 mi SE 6.9 mph - N/A   Clear
6:55 PM 75.4 °F 65.3 °F 71% 29.96 in 10.0 mi SE 6.9 mph - N/A   Clear
7:15 PM 75.4 °F 65.7 °F 72% 29.97 in 10.0 mi SE 8.1 mph - N/A   Scattered Clouds
7:35 PM 75.6 °F 65.8 °F 72% 29.97 in 10.0 mi SE 6.9 mph - N/A   Scattered Clouds
7:55 PM 75.6 °F 66.7 °F 74% 29.97 in 10.0 mi SE 8.1 mph - N/A   Clear
8:15 PM 75.2 °F 68.0 °F 78% 29.97 in 10.0 mi SE 6.9 mph - N/A   Clear
8:35 PM 75.2 °F 68.0 °F 78% 29.97 in 10.0 mi SE 8.1 mph - N/A   Clear
8:55 PM 75.2 °F 67.1 °F 76% 29.97 in 10.0 mi SE 8.1 mph - N/A   Clear
9:15 PM 74.3 °F 68.0 °F 81% 29.97 in 10.0 mi SSE 6.9 mph - N/A   Clear
9:35 PM 74.3 °F 68.4 °F 82% 29.97 in 10.0 mi SSE 6.9 mph - N/A   Clear
9:55 PM 74.3 °F 68.2 °F 81% 29.98 in 10.0 mi SE 6.9 mph - N/A   Clear
10:15 PM 74.3 °F 68.4 °F 82% 29.97 in 10.0 mi SE 8.1 mph - N/A   Clear
10:35 PM 74.3 °F 68.2 °F 81% 29.98 in 10.0 mi SSE 6.9 mph - N/A   Clear
10:55 PM 74.3 °F 67.6 °F 80% 29.98 in 10.0 mi SSE 6.9 mph - N/A   Clear
11:15 PM 74.7 °F 68.0 °F 80% 29.98 in 10.0 mi SSE 5.8 mph - N/A   Clear
11:35 PM 74.5 °F 68.0 °F 80% 29.98 in 10.0 mi SSE 6.9 mph - N/A   Clear
11:55 PM 74.7 °F 68.9 °F 82% 29.98 in 10.0 mi South 5.8 mph - N/A   Mostly Cloudy